COOK73 ZPPP-VAAU

Flight info

Callsign COOK73
Flight time N/A
Altitude 36000
Route GULOT1Y GULOT A599 LINSO/N0450F360 A599 CTG B465 CEA J46 JRS W160 OGUNA Z14 OSVAS Q20 LUXIP
Aircraft C25C/M-SDE2E3FGHRWXY/LB1

Departure

Time N/A
Airport Kunming Changshui International Airport (ZPPP)

Arrival

Time 2026-05-06 16:34
Airport Aurangabad Airport (VAAU)
Time Latitude Longitude Altitude Speed Heading
2026-05-06 15:23 21.45762 82.12968 35793 ft 368 kts 267°
2026-05-06 15:23 21.45478 82.07464 35795 ft 370 kts 267°
2026-05-06 15:24 21.45193 82.01933 35795 ft 372 kts 267°
2026-05-06 15:24 21.44774 81.96390 35799 ft 373 kts 265°
2026-05-06 15:25 21.44289 81.90835 35809 ft 374 kts 265°
2026-05-06 15:25 21.43790 81.85268 35816 ft 375 kts 265°
2026-05-06 15:26 21.43290 81.79691 35820 ft 376 kts 265°
2026-05-06 15:26 21.42792 81.74145 35826 ft 376 kts 265°
2026-05-06 15:27 21.42289 81.68560 35825 ft 376 kts 265°
2026-05-06 15:27 21.41783 81.62974 35823 ft 376 kts 265°
2026-05-06 15:28 21.41274 81.57387 35821 ft 376 kts 265°
2026-05-06 15:28 21.40764 81.51800 35817 ft 376 kts 265°
2026-05-06 15:29 21.40253 81.46210 35812 ft 376 kts 265°
2026-05-06 15:29 21.39740 81.40623 35809 ft 376 kts 265°
2026-05-06 15:30 21.39224 81.35031 35811 ft 376 kts 265°
2026-05-06 15:30 21.38705 81.29444 35812 ft 376 kts 265°
2026-05-06 15:31 21.38186 81.23854 35814 ft 377 kts 265°
2026-05-06 15:31 21.37665 81.18257 35818 ft 377 kts 265°
2026-05-06 15:32 21.36879 81.09870 35820 ft 377 kts 265°
2026-05-06 15:32 21.36356 81.04319 35824 ft 377 kts 265°
2026-05-06 15:33 21.35828 80.98727 35822 ft 377 kts 265°
2026-05-06 15:33 21.35296 80.93132 35829 ft 377 kts 265°
2026-05-06 15:34 21.34766 80.87544 35833 ft 377 kts 265°
2026-05-06 15:34 21.34233 80.81958 35831 ft 376 kts 265°
2026-05-06 15:35 21.33460 80.76422 35830 ft 376 kts 258°
2026-05-06 15:35 21.31959 80.71034 35832 ft 377 kts 255°
2026-05-06 15:36 21.30449 80.65689 35831 ft 377 kts 255°
2026-05-06 15:36 21.28909 80.60303 35834 ft 377 kts 255°
2026-05-06 15:37 21.27376 80.54922 35833 ft 378 kts 255°
2026-05-06 15:37 21.25836 80.49536 35833 ft 378 kts 255°
2026-05-06 15:38 21.24294 80.44151 35833 ft 378 kts 255°
2026-05-06 15:38 21.22752 80.38764 35833 ft 378 kts 255°
2026-05-06 15:39 21.21208 80.33382 35832 ft 378 kts 255°
2026-05-06 15:39 21.19660 80.27994 35830 ft 378 kts 255°
2026-05-06 15:40 21.18111 80.22615 35830 ft 378 kts 255°
2026-05-06 15:40 21.16569 80.17261 35830 ft 378 kts 255°
2026-05-06 15:41 21.15016 80.11874 35828 ft 378 kts 255°
2026-05-06 15:41 21.13460 80.06483 35825 ft 378 kts 255°
2026-05-06 15:42 21.11902 80.01099 35828 ft 379 kts 255°
2026-05-06 15:42 21.10342 79.95715 35825 ft 379 kts 255°
2026-05-06 15:43 21.08781 79.90329 35826 ft 379 kts 255°
2026-05-06 15:43 21.07216 79.84935 35823 ft 379 kts 255°
2026-05-06 15:44 21.05651 79.79550 35821 ft 379 kts 255°
2026-05-06 15:44 21.04081 79.74160 35817 ft 379 kts 255°
2026-05-06 15:45 21.02511 79.68770 35818 ft 379 kts 255°
2026-05-06 15:45 21.00938 79.63378 35819 ft 379 kts 255°
2026-05-06 15:46 20.99363 79.57987 35817 ft 380 kts 255°
2026-05-06 15:46 20.98052 79.53507 35820 ft 380 kts 255°
2026-05-06 15:47 20.96472 79.48113 35818 ft 380 kts 255°
2026-05-06 15:47 20.94889 79.42718 35818 ft 380 kts 255°
2026-05-06 15:48 20.93305 79.37318 35818 ft 380 kts 255°
2026-05-06 15:48 20.91717 79.31918 35819 ft 381 kts 255°
2026-05-06 15:49 20.89969 79.25847 35818 ft 380 kts 256°
2026-05-06 15:49 20.88519 79.20401 35820 ft 381 kts 256°
2026-05-06 15:50 20.87055 79.14965 35822 ft 381 kts 256°
2026-05-06 15:50 20.85595 79.09515 35819 ft 381 kts 256°
2026-05-06 15:51 20.84129 79.04067 35820 ft 382 kts 256°
2026-05-06 15:51 20.82670 78.98652 35820 ft 382 kts 256°
2026-05-06 15:52 20.81189 78.93162 35820 ft 382 kts 256°
2026-05-06 15:52 20.79725 78.87742 35818 ft 382 kts 256°
2026-05-06 15:53 20.78248 78.82279 35815 ft 382 kts 256°
2026-05-06 15:53 20.76771 78.76819 35812 ft 383 kts 256°
2026-05-06 15:54 20.75285 78.71340 35822 ft 383 kts 256°
2026-05-06 15:54 20.73799 78.65870 35814 ft 383 kts 256°
2026-05-06 15:55 20.72310 78.60395 35811 ft 384 kts 256°
2026-05-06 15:55 20.70821 78.54920 35810 ft 384 kts 255°
2026-05-06 15:56 20.69338 78.49479 35816 ft 384 kts 255°
2026-05-06 15:56 20.67840 78.43996 35811 ft 385 kts 255°
2026-05-06 15:57 20.66341 78.38514 35811 ft 385 kts 255°
2026-05-06 15:57 20.64836 78.33016 35813 ft 385 kts 255°
2026-05-06 15:58 20.63332 78.27525 35811 ft 386 kts 255°
2026-05-06 15:58 20.62078 78.22956 35805 ft 386 kts 255°
2026-05-06 15:59 20.60566 78.17454 35805 ft 386 kts 255°
2026-05-06 15:59 20.59051 78.11952 35804 ft 387 kts 255°
2026-05-06 16:00 20.57532 78.06440 35804 ft 387 kts 255°
2026-05-06 16:00 20.56014 78.00929 35803 ft 387 kts 255°
2026-05-06 16:01 20.54529 77.95399 35800 ft 388 kts 255°
2026-05-06 16:01 20.53026 77.89863 35803 ft 388 kts 255°
2026-05-06 16:02 20.51766 77.84275 35803 ft 388 kts 263°
2026-05-06 16:02 20.51215 77.78583 35801 ft 388 kts 263°
2026-05-06 16:03 20.50308 77.72903 35802 ft 389 kts 261°
2026-05-06 16:03 20.49504 77.67197 35800 ft 389 kts 262°
2026-05-06 16:04 20.48670 77.61493 35800 ft 389 kts 262°
2026-05-06 16:04 20.47837 77.55792 35799 ft 389 kts 262°
2026-05-06 16:05 20.47005 77.50086 35800 ft 389 kts 262°
2026-05-06 16:05 20.46167 77.44381 35802 ft 389 kts 262°
2026-05-06 16:06 20.45329 77.38682 35801 ft 389 kts 262°
2026-05-06 16:06 20.44488 77.32974 35803 ft 390 kts 262°
2026-05-06 16:07 20.43646 77.27267 35803 ft 390 kts 262°
2026-05-06 16:07 20.43230 77.24462 35545 ft 384 kts 262°
2026-05-06 16:07 20.42818 77.21671 35057 ft 377 kts 262°
2026-05-06 16:08 20.42413 77.18931 34567 ft 371 kts 262°
2026-05-06 16:08 20.42011 77.16229 34084 ft 367 kts 262°
2026-05-06 16:08 20.41614 77.13563 33579 ft 363 kts 262°
2026-05-06 16:08 20.41223 77.10924 33099 ft 357 kts 263°
2026-05-06 16:09 20.40835 77.08321 32629 ft 353 kts 263°
2026-05-06 16:09 20.40452 77.05753 32171 ft 349 kts 263°
2026-05-06 16:09 20.40072 77.03203 31713 ft 346 kts 263°
2026-05-06 16:09 20.39694 77.00678 31263 ft 344 kts 263°
2026-05-06 16:10 20.39320 76.98169 30814 ft 342 kts 263°
2026-05-06 16:10 20.38947 76.95674 30367 ft 340 kts 263°
2026-05-06 16:10 20.38574 76.93194 29921 ft 339 kts 263°
2026-05-06 16:10 20.38205 76.90718 29440 ft 337 kts 263°
2026-05-06 16:11 20.37836 76.88268 28997 ft 334 kts 263°
2026-05-06 16:11 20.37472 76.85832 28559 ft 331 kts 263°
2026-05-06 16:11 20.37040 76.83428 28131 ft 331 kts 258°
2026-05-06 16:11 20.36334 76.81092 27697 ft 331 kts 253°
2026-05-06 16:12 20.35515 76.78808 27311 ft 329 kts 253°
2026-05-06 16:12 20.34716 76.76534 26889 ft 328 kts 253°
2026-05-06 16:12 20.33920 76.74259 26457 ft 328 kts 253°
2026-05-06 16:12 20.33116 76.71986 26031 ft 328 kts 253°
2026-05-06 16:13 20.32313 76.69713 25602 ft 328 kts 253°
2026-05-06 16:13 20.31518 76.67467 25173 ft 329 kts 253°
2026-05-06 16:13 20.30713 76.65190 24744 ft 329 kts 253°
2026-05-06 16:13 20.29905 76.62903 24313 ft 330 kts 253°
2026-05-06 16:14 20.29096 76.60615 23879 ft 330 kts 253°
2026-05-06 16:14 20.28281 76.58323 23445 ft 331 kts 253°
2026-05-06 16:14 20.27470 76.56028 22963 ft 331 kts 253°
2026-05-06 16:14 20.26660 76.53745 22525 ft 329 kts 252°
2026-05-06 16:15 20.25855 76.51469 22096 ft 328 kts 252°
2026-05-06 16:15 20.25049 76.49201 21666 ft 327 kts 252°
2026-05-06 16:15 20.24245 76.46936 21233 ft 327 kts 252°
2026-05-06 16:15 20.23442 76.44671 20812 ft 327 kts 252°
2026-05-06 16:16 20.22635 76.42402 20382 ft 328 kts 251°
2026-05-06 16:16 20.21828 76.40129 19954 ft 329 kts 251°
2026-05-06 16:16 20.21016 76.37849 19517 ft 329 kts 251°
2026-05-06 16:16 20.20203 76.35563 19092 ft 331 kts 251°
2026-05-06 16:17 20.19388 76.33269 18655 ft 332 kts 251°
2026-05-06 16:17 20.18568 76.30966 18219 ft 333 kts 250°
2026-05-06 16:17 20.17744 76.28657 17752 ft 334 kts 250°
2026-05-06 16:17 20.16919 76.26347 17286 ft 333 kts 250°
2026-05-06 16:18 20.16099 76.24042 16860 ft 333 kts 250°
2026-05-06 16:18 20.15279 76.21743 16423 ft 332 kts 250°
2026-05-06 16:18 20.14469 76.19473 15992 ft 332 kts 250°
2026-05-06 16:18 20.13650 76.17183 15557 ft 331 kts 250°
2026-05-06 16:19 20.12833 76.14891 15120 ft 331 kts 250°
2026-05-06 16:19 20.12012 76.12595 14691 ft 331 kts 250°
2026-05-06 16:19 20.11205 76.10339 14244 ft 314 kts 250°
2026-05-06 16:19 20.10455 76.08248 13856 ft 291 kts 250°
2026-05-06 16:20 20.09760 76.06306 13466 ft 272 kts 250°
2026-05-06 16:20 20.09108 76.04482 13112 ft 256 kts 250°
2026-05-06 16:20 20.08480 76.02728 12776 ft 249 kts 250°
2026-05-06 16:20 20.07871 76.01031 12454 ft 242 kts 250°
2026-05-06 16:21 20.07283 75.99386 12143 ft 233 kts 250°
2026-05-06 16:21 20.06713 75.97797 11839 ft 227 kts 250°
2026-05-06 16:21 20.06157 75.96246 11545 ft 222 kts 250°
2026-05-06 16:21 20.05613 75.94729 11260 ft 218 kts 250°
2026-05-06 16:22 20.05075 75.93232 10979 ft 215 kts 250°
2026-05-06 16:22 20.04546 75.91755 10697 ft 212 kts 250°
2026-05-06 16:22 20.04018 75.90285 10421 ft 213 kts 250°
2026-05-06 16:22 20.03495 75.88826 10143 ft 215 kts 250°
2026-05-06 16:23 20.02960 75.87340 9863 ft 216 kts 250°
2026-05-06 16:23 20.02424 75.85848 9565 ft 216 kts 250°
2026-05-06 16:23 20.01889 75.84359 9280 ft 215 kts 250°
2026-05-06 16:23 20.01353 75.82867 8995 ft 212 kts 250°
2026-05-06 16:24 20.00833 75.81427 8708 ft 211 kts 251°
2026-05-06 16:24 20.00313 75.79975 8434 ft 209 kts 250°
2026-05-06 16:24 19.99791 75.78529 8157 ft 209 kts 251°
2026-05-06 16:24 19.99272 75.77089 7887 ft 209 kts 251°
2026-05-06 16:25 19.98511 75.75780 7610 ft 211 kts 225°
2026-05-06 16:25 19.97442 75.74712 7336 ft 211 kts 226°
2026-05-06 16:25 19.96387 75.73633 7063 ft 210 kts 226°
2026-05-06 16:25 19.95326 75.72548 6783 ft 212 kts 226°
2026-05-06 16:26 19.94260 75.71458 6502 ft 213 kts 226°
2026-05-06 16:26 19.93193 75.70367 6214 ft 212 kts 226°
2026-05-06 16:26 19.92133 75.69282 5928 ft 211 kts 226°
2026-05-06 16:26 19.91084 75.68210 5654 ft 208 kts 226°
2026-05-06 16:27 19.90043 75.67146 5365 ft 207 kts 226°
2026-05-06 16:27 19.89009 75.66087 5099 ft 207 kts 226°
2026-05-06 16:27 19.87972 75.65028 4825 ft 207 kts 227°
2026-05-06 16:27 19.86967 75.63931 4549 ft 207 kts 238°
2026-05-06 16:28 19.86563 75.62544 4483 ft 196 kts 271°
2026-05-06 16:28 19.86525 75.61095 4588 ft 198 kts 274°
2026-05-06 16:28 19.86529 75.59635 4595 ft 197 kts 274°
2026-05-06 16:28 19.86519 75.58197 4611 ft 192 kts 274°
2026-05-06 16:29 19.86499 75.56860 4613 ft 166 kts 274°
2026-05-06 16:29 19.86479 75.55722 4449 ft 147 kts 275°
2026-05-06 16:29 19.86478 75.54658 4266 ft 140 kts 274°
2026-05-06 16:29 19.86466 75.53665 4091 ft 125 kts 276°
2026-05-06 16:30 19.86454 75.52764 3928 ft 120 kts 277°
2026-05-06 16:30 19.86445 75.52184 3827 ft 118 kts 276°
2026-05-06 16:30 19.86438 75.51038 3645 ft 116 kts 275°
2026-05-06 16:30 19.86430 75.50173 3501 ft 117 kts 275°
2026-05-06 16:31 19.86420 75.49326 3352 ft 111 kts 276°
2026-05-06 16:31 19.86402 75.48511 3215 ft 109 kts 276°
2026-05-06 16:31 19.86402 75.47694 3083 ft 112 kts 276°
2026-05-06 16:31 19.86394 75.46860 2945 ft 115 kts 276°
2026-05-06 16:32 19.86384 75.46010 2802 ft 116 kts 276°
2026-05-06 16:32 19.86374 75.45184 2672 ft 110 kts 272°
2026-05-06 16:32 19.86363 75.44363 2533 ft 109 kts 271°
2026-05-06 16:32 19.86362 75.43580 2405 ft 108 kts 269°
2026-05-06 16:33 19.86338 75.42773 2266 ft 110 kts 272°
2026-05-06 16:33 19.86332 75.41939 2124 ft 116 kts 267°
2026-05-06 16:33 19.86316 75.41116 1937 ft 105 kts 270°
2026-05-06 16:34 19.86311 75.40139 1898 ft 31 kts 269°
2026-05-06 16:34 19.86309 75.39917 1900 ft 29 kts 269°
2026-05-06 16:34 19.86307 75.39713 1902 ft 22 kts 269°
2026-05-06 16:34 19.86306 75.39557 1905 ft 20 kts 269°
2026-05-06 16:35 19.86387 75.39491 1906 ft 18 kts
2026-05-06 16:35 19.86512 75.39491 1901 ft 16 kts 360°
2026-05-06 16:35 19.86567 75.39491 1899 ft 2 kts 360°
2026-05-06 16:35 19.86592 75.39490 1900 ft 5 kts 352°
2026-05-06 16:36 19.86606 75.39463 1905 ft 5 kts 270°
2026-05-06 16:36 19.86606 75.39461 1905 ft 0 kts 270°